[Iaude] MPEC E31: 2019 EJ [a=2.02,e=0.51,i=5.0,H=24.5]

mpec at mpcdb1.cfa.harvard.edu mpec at mpcdb1.cfa.harvard.edu
Sun Mar 3 19:37:16 EST 2019


M.P.E.C. 2019-E31                                Issued 2019 Mar. 4, 00:34 UT
 
     The Minor Planet Electronic Circulars contain information on unusual
         minor planets and routine data on comets.  They are published
    on behalf of Division F of the International Astronomical Union by the
          Minor Planet Center, Smithsonian Astrophysical Observatory,
                          Cambridge, MA 02138, U.S.A.

             Prepared using the Tamkin Foundation Computer Network

                              MPC at CFA.HARVARD.EDU
            URL https://www.minorplanetcenter.net/    ISSN 1523-6714


                                    2019 EJ
 
Observations:
     K19E00J* C2019 03 01.52171212 53 27.10 -25 22 23.7          18.85oVEE031T08
     K19E00J  C2019 03 01.52556312 53 30.23 -25 21 42.7          18.59oVEE031T08
     K19E00J  C2019 03 01.53542712 53 38.15 -25 19 57.8          18.45oVEE031T08
     K19E00J  C2019 03 01.55082512 53 50.64 -25 17 12.9          18.34oVEE031T08
     K19E00J KC2019 03 01.96624812 59 59.24 -24 02 13.5          19.0 GVEE031K91
     K19E00J KC2019 03 01.96917513 00 01.45 -24 01 44.4          19.1 GVEE031K91
     K19E00J KC2019 03 01.97210313 00 03.66 -24 01 15.5          19.1 GVEE031K91
     K19E00J IC2019 03 01.97503713 00 05.86 -24 00 46.4                VEE031K91
     K19E00J KC2019 03 02.04843113 01 01.82 -23 52 27.2          19.0 GVEE031L01
     K19E00J IC2019 03 02.04961613 01 02.71 -23 52 15.5          19.0 GVEE031L01
     K19E00J pC2019 03 02.05387213 01 05.92 -23 51 32.9          18.8 GVEE031L01
     K19E00J KC2019 03 02.05506213 01 06.77 -23 51 20.7          18.9 GVEE031L01
     K19E00J KC2019 03 02.05565513 01 07.20 -23 51 14.8          18.8 GVEE031L01
     K19E00J KC2019 03 02.05683813 01 08.13 -23 51 03.1          18.9 GVEE031L01
     K19E00J KC2019 03 02.18169 13 02 56.44 -23 26 15.0          19.4 GVEE031I19
     K19E00J KC2019 03 02.18334 13 02 57.67 -23 25 58.6          19.0 GVEE031I19
     K19E00J KC2019 03 02.18525 13 02 59.09 -23 25 40.6          18.5 GVEE031I19
     K19E00J KC2019 03 02.60940613 08 17.77 -22 16 55.4          19.4 GVEE031474
     K19E00J KC2019 03 02.61132513 08 19.06 -22 16 37.4          19.2 GVEE031474
     K19E00J KC2019 03 02.61324513 08 20.37 -22 16 19.4          19.6 GVEE031474
     K19E00J KC2019 03 03.05232 13 13 29.86 -21 13 36.7                VEE031595
     K19E00J KC2019 03 03.06037 13 13 34.81 -21 12 25.4          18.1 GVEE031595
     K19E00J HC2019 03 03.07389 13 13 43.93 -21 10 24.6                VEE031204
     K19E00J KC2019 03 03.07864 13 13 46.83 -21 09 42.4          19.2 GVEE031204
     K19E00J HC2019 03 03.08311 13 13 49.58 -21 09 02.4                VEE031204
     K19E00J KC2019 03 03.18504 13 15 04.12 -20 50 08.8          20.6 VqEE031X31
     K19E00J KC2019 03 03.18957 13 15 06.81 -20 49 29.5          19.7 VqEE031X31
     K19E00J KC2019 03 03.19410 13 15 09.56 -20 48 50.2          19.1 VqEE031X31
     K19E00J KC2019 03 03.47573413 18 12.96 -20 07 22.9          19.8 GVEE031474
     K19E00J KC2019 03 03.47698413 18 13.69 -20 07 12.6          19.5 GVEE031474
     K19E00J KC2019 03 03.47823313 18 14.43 -20 07 02.3          19.1 GVEE031474
     K19E00J KC2019 03 03.47948213 18 15.16 -20 06 51.8          19.4 GVEE031474
     K19E00J KC2019 03 03.59827 13 19 26.60 -19 50 56.9          19.1 VqEE031E23
     K19E00J KC2019 03 03.61158 13 19 33.90 -19 49 08.0          19.3 VqEE031E23
     K19E00J KC2019 03 03.62489 13 19 41.13 -19 47 18.7          19.4 VqEE031E23
 
Observer details:
204 Schiaparelli Observatory.  Observer L. Buzzi.  0.84-m f/3.5 reflector +
    CCD.
474 Mount John Observatory, Lake Tekapo.  Observers A. C. Gilmore,
    P. M. Kilmartin.  Measurer P. M. Kilmartin.  1.0-m f/7.7 reflector + CCD.
595 Farra dIsonzo.  Observer E. Pettarin.  0.61-m f/4.5 reflector + CCD.
E23 Arcadia.  Observer A. Hidas.  0.35-m f/1.9 reflector + CCD.
I19 Observatorio El Gato Gris, Tanti.  Observer C. Colazo.  0.36-m f/10.70
    Schmidt-Cassegrain + CCD.
K91 Sutherland-LCO A.  Observers T. Lister, J. Chatelain, E. Gomez,
    S. Greenstreet.  Measurer T. Lister.  1.0-m f/8.0 Ritchey-Chretien + CCD.
L01 Visnjan Observatory, Tican.  Observers K. Korlevic, G. Kervina,
    F. Valentine.  Measurer K. Korlevic.  1.0-m f/2.9 reflector + CCD.
T08 ATLAS-MLO, Mauna Loa.  Observers L. Denneau, J. Tonry, A. Heinze,
    H. Weiland, H. Flewelling.  Measurers L. Denneau, J. Tonry, A. Heinze,
    H. Weiland, H. Flewelling, B. Stalder, A. Fitzsimmons, D. Young,
    N. Erasmus.  0.5-m reflector + CCD.
X31 Galileo Galilei Observatory, Oro Verde.  Observer C. Fornari.  0.35-m
    f/11 Schmidt-Cassegrain + CCD.
 
Orbital elements:
2019 EJ                                                  Earth MOID = 0.0276 AU
Epoch 2019 Apr. 27.0 TT = JDT 2458600.5                 MPC
M  25.13253              (2000.0)            P               Q
n   0.34239109     Peri.  331.99898     -0.78251292     -0.62242782
a   2.0235833      Node   169.46183     +0.58638027     -0.74536514
e   0.5070976      Incl.    5.03012     +0.20936024     -0.23877694
P   2.88           H   24.5           G   0.15           U   5
Residuals in seconds of arc
190301 T08  0.1+  0.2-    190302 L01  0.5-  0.1+    190303 204  0.3+  0.1+
190301 T08  0.3+  0.1-    190302 L01  0.1+  0.0     190303 X31  0.1+  0.4-
190301 T08  0.5-  0.1-    190302 I19  0.1-  0.0     190303 X31  0.1+  0.0
190301 T08  0.4+  0.4+    190302 I19  0.3+  0.5+    190303 X31  1.0+  0.4+
190301 K91  0.2+  0.2-    190302 I19  0.7+  0.1+    190303 474  0.1-  0.2-
190301 K91  0.1+  0.1-    190302 474  0.2-  0.2-    190303 474  0.3-  0.2-
190301 K91  0.1+  0.3-    190302 474  0.1-  0.2-    190303 474  0.2-  0.1-
190301 K91  0.0   0.3-    190302 474  0.3+  0.1-    190303 474  0.3-  0.1+
190302 L01  0.1-  0.1+    190303 595  0.3-  0.6+    190303 E23  0.3+  0.1-
190302 L01  0.1-  0.0     190303 595  0.1-  0.1+    190303 E23  0.3+  0.2-
190302 L01  0.2+  0.1-    190303 204  0.0   0.1+    190303 E23  0.0   0.0
190302 L01  0.3-  0.2+    190303 204  0.0   0.0

Ephemeris:
2019 EJ                  a,e,i = 2.02, 0.51, 5                   q = 0.9974
Date    TT    R. A. (2000) Decl.     Delta      r     Elong.  Phase     V
2019 02 02    04 12 32.0 -19 27 17   0.08968 1.0057   100.5    74.5    21.9
...
2019 02 17    06 02 14.0 -37 46 18   0.03843 0.9988   105.3    72.6    20.0
...
2019 02 25    11 01 07.2 -40 33 22   0.02965 1.0089   129.6    49.1    18.7
...
2019 03 03    13 12 52.8 -21 18 27   0.04319 1.0224   135.5    42.9    19.4
2019 03 04    13 23 17.2 -18 57 17   0.04639 1.0251   135.7    42.5    19.5
2019 03 05    13 31 59.8 -16 52 12   0.04973 1.0280   135.9    42.1    19.7
...
2019 03 11    14 02 53.3 -08 22 50   0.07179 1.0478   138.2    39.2    20.4
...
2019 03 19    14 18 07.2 -02 41 10   0.1042  1.0807   143.3    33.4    21.2
...
2019 04 03    14 20 54.2 +01 52 03   0.1722  1.1586   155.5    21.0    22.0

A. U. Tomatic                (C) Copyright 2019 MPC           M.P.E.C. 2019-E31



More information about the Iaude mailing list